Regional Weather Roundup
Issued by NWS Portland, ME

Current Version | Previous Version | Text Only | Print | Product List | Glossary Off
Versions: 1 2 3 4 5 6 7 8 9 10 11 12 13 14 15 16 17 18 19 20 21 22 23 24 25 26 27 28 29 30 31 32 33 34 35 36 37 38 39 40 41 42 43 44 45 46 47 48 49 50
000 ASUS41 KGYX 120705 RWRGYX WEATHER ROUNDUP FOR MAINE AND NEW HAMPSHIRE NATIONAL WEATHER SERVICE GRAY ME 200 AM EST TUE DEC 12 2017 MEZ002-005-006-010-012-015-018-020-021-024-026-027-029-120800- MAINE CITY SKY/WX TMP DP RH WIND PRES REMARKS PORTLAND CLOUDY 25 16 68 NE9 30.02F SANFORD CLOUDY 26 20 77 NE8 29.99F BAR HARBOR CLOUDY 18 14 84 NE6 30.08R WISCASSET CLOUDY 21 14 74 VRB3 30.06S ROCKLAND CLOUDY 25 20 81 NE7 30.04S FRYEBURG CLOUDY 23 16 74 E7 29.99F LEWISTONAUBURN CLOUDY 20 12 71 N8 30.04S AUGUSTA CLOUDY 17 8 67 NE8 30.05R WATERVILLE CLOUDY 15 8 73 NE7 30.01R BANGOR CLOUDY 14 9 80 N7 30.08R GREENVILLE N/A 6 1 80 E5 29.92F MILLINOCKET CLOUDY 0 -2 91 CALM 30.08F HOULTON CLOUDY -5 -9 83 CALM 30.08R PRESQUE ISLE CLOUDY -12 -15 86 CALM 30.09R FRENCHVILLE CLOUDY -1 -5 82 E3 30.02R CARIBOU CLOUDY -8 -12 83 CALM 30.06R $$ NHZ002-005-008-009-011-012-014-120800- NEW HAMPSHIRE CITY SKY/WX TMP DP RH WIND PRES REMARKS PORTSMOUTH CLOUDY 30 22 73 NE6 29.96F ROCHESTER CLOUDY 27 20 75 N5 29.97F NASHUA CLOUDY 29 24 82 NW3 29.97F MANCHESTER CLOUDY 30 20 66 CALM 29.95F CONCORD CLOUDY 27 21 78 CALM 29.96F LACONIA FLURRIES 27 19 72 E8 29.96F PLYMOUTH LGT SNOW 23 19 86 CALM 29.96S BERLIN CLOUDY 12 9 87 CALM 29.91F WHITEFIELD CLOUDY 13 10 88 W3 29.89F JAFFREY FLURRIES 28 21 75 VRB5 29.91S KEENE FLURRIES 27 23 85 CALM 29.93S LEBANON CLOUDY 25 19 78 CALM 29.91F MT WASHINGTON SNOW 3 3 100 S31 N/A VSB 1/16WCI -22 $$ VTZ005-007-008-120800- VERMONT CITY SKY/WX TMP DP RH WIND PRES REMARKS ST JOHNSBURY N/A 14 11 87 MISG 29.91F MONTPELIER LGT SNOW 15 13 91 CALM 29.90F FOG BURLINGTON CLOUDY 20 14 77 E3 29.88F $$ MAZ007-012-024-CTZ003-RIZ002-NYZ038-NYZ072-120800- SOUTHERN NEW ENGLAND AND NY CITY SKY/WX TMP DP RH WIND PRES REMARKS BOSTON CLOUDY 35 24 64 SE7 29.97F WORCESTER CLOUDY 29 17 61 E5 29.91F NANTUCKET CLOUDY 39 32 76 SE9 29.96F PROVIDENCE CLOUDY 33 27 78 CALM 29.96F HARTFORD CLOUDY 30 24 78 NW3 29.93F ALBANY LGT SNOW 30 21 69 VRB3 29.87F NEW YORK CITY CLOUDY 39 27 62 E7 29.87F $$ ANZ081-ANZ082-ANZ150-NHZ014-MEZ023>029-120800- COASTAL MARINE OBSERVATIONS STATION/POSITION TIME TEMP WIND PRES WAVE AIR SEA DIR/SP/G HT/PER (UTC) (F) (DEG/KT/KT) (MB) (FT/S) MOUNT DESERT ROC 0700 29 20/ 14/ 18 1017.4R MATINICUS ROCK 0600 31 50/ 13/ 16 1016.0F ISLE OF SHOALS 0600 36 100/ 9/ 11 1014.9F JEFFREYS LEDGE 0636 47 N/A 3/10 GEORGES BANK BUO 0550 45 51 1016.0 6/ 9 $$ .............KEY.............. WCI - WIND CHILL TC - TEMPERATURE IN CELSIUS VSB - VISIBILITY IN MILES HX - HEAT INDEX FAIR- INDICATES FEW OR NO CLOUDS BELOW 12,000 FT, WITH NO SIGNIFICANT WEATHER AND/OR OBSTRUCTIONS TO VISIBILITY.

USA.gov is the U.S. government's official web portal to all federal, state and local government web resources and services.